Regional Weather Roundup
Issued by NWS

Home | Current Version | Previous Version | Graphics & Text | Print | Product List | Glossary On
Versions: 1 2 3 4 5 6 7 8 9 10 11 12 13 14 15 16 17 18 19 20 21 22 23 24 25 26 27 28 29 30 31 32 33 34 35 36 37 38 39 40 41 42 43 44 45 46 47 48 49 50
000
ASUS43 KLMK 270310
RWRKY
KENTUCKY REGIONAL WEATHER ROUNDUP
NATIONAL WEATHER SERVICE LOUISVILLE KY
1100 PM EDT MON SEP 26 2016

NOTE "FAIR" INDICATES FEW OR NO CLOUDS BELOW 12,000 FEET
WITH NO SIGNIFICANT WEATHER AND/OR OBSTRUCTIONS TO VISIBILITY.

KYZ001>023-026-027-061>063-070>075-270400-
WESTERN AND SOUTH CENTRAL KENTUCKY

CITY           SKY/WX    TMP DP  RH WIND       PRES   REMARKS
PADUCAH        CLEAR     55  52  89 SW3       30.10S
HENDERSON      CLEAR     54  46  76 SW3       30.09S
OWENSBORO      CLEAR    N/A N/A N/A VRB5      30.09S
HOPKINSVILLE   CLEAR     56  54  91 SW5       30.11R
BOWLING GREEN  CLEAR     57  54  89 CALM      30.11S
GLASGOW        FOG      N/A N/A N/A CALM      30.11S VSB 1/2
$$

KYZ024-025-028>034-038-045-046-053-270400-
NORTH CENTRAL KENTUCKY

CITY           SKY/WX    TMP DP  RH WIND       PRES   REMARKS
LOUISVILLE/SDF CLEAR     59  53  80 S5        30.08S
LOUISVILLE/LOU CLEAR     57  53  86 CALM      30.09S
FORT KNOX      CLEAR     54  53  97 CALM      30.08R
$$

KYZ035>037-039>044-047>052-055>060-089>105-270400-
NORTHEAST KENTUCKY

CITY           SKY/WX    TMP DP  RH WIND       PRES   REMARKS
LEXINGTON      CLOUDY    56  51  84 SW3       30.09S
COVINGTON      CLEAR     54  50  86 SW5       30.06S
FRANKFORT      CLEAR     56  52  86 SW3       30.08S
$$

KYZ054-064>069-076>088-106>120-270400-
SOUTHEAST KENTUCKY

CITY           SKY/WX    TMP DP  RH WIND       PRES   REMARKS
JACKSON        MOCLDY    61  58  90 VRB3      30.08F
LONDON         MOCLDY    62  55  77 NW5       30.09S
SOMERSET       CLOUDY    59  54  82 CALM      30.11S
MIDDLESBORO    CLOUDY    69  65  84 N6        30.07S
MONTICELLO     MOCLDY    60  56  86 N10       30.12S
$$





USA.gov is the U.S. government's official web portal to all federal, state and local government web resources and services.